When you browse on this site, cookies collect data to enhance your experience and personalize the content and advertising you see.
Visit our Privacy Policy to learn more. By continuing to use the site, you agree to this use of cookies and data.
  • En España
  • Lista de países
  • Para 7 días
  • Temperatura del agua
  • El tiempo en el mapa
  • Informadores
  • user-avatar
    Iniciar sesión

    Tiempo cada hora Elbasan

    Hoy, 10 Diciembre, Martes

    Tiempo Temperatura Precipitaciones Viento Presión Humedad
    00:00 +11°C° 0.3 mm 1 mps 730 mmHg 79%
    01:00 +11°C° 0 mm 1 mps 730 mmHg 85%
    02:00 +11°C° 0.9 mm 1 mps 729 mmHg 87%
    03:00 +11°C° 0.9 mm 1 mps 729 mmHg 88%
    04:00 +10°C° 0.9 mm 1 mps 729 mmHg 90%
    05:00 +10°C° 2 mm 1 mps 729 mmHg 91%
    06:00 +10°C° 2 mm 1 mps 729 mmHg 92%
    07:00 +10°C° 2 mm 1 mps 729 mmHg 94%
    08:00 +10°C° 1.1 mm 1 mps 729 mmHg 93%
    09:00 +10°C° 1.1 mm 1 mps 729 mmHg 92%
    10:00 +9°C° 1.1 mm 2 mps 729 mmHg 92%
    11:00 +10°C° 0.7 mm 2 mps 729 mmHg 89%
    12:00 +10°C° 0.7 mm 2 mps 728 mmHg 87%
    13:00 +10°C° 0.7 mm 2 mps 728 mmHg 85%
    14:00 +10°C° 0.6 mm 2 mps 728 mmHg 86%
    15:00 +10°C° 0.6 mm 2 mps 728 mmHg 87%
    16:00 +11°C° 0.6 mm 1 mps 728 mmHg 88%
    17:00 +9°C° 0.3 mm 2 mps 728 mmHg 88%
    18:00 +9°C° 0.3 mm 2 mps 728 mmHg 87%
    19:00 +9°C° 0.3 mm 2 mps 728 mmHg 87%
    20:00 +9°C° 0.2 mm 2 mps 728 mmHg 87%
    21:00 +9°C° 0.2 mm 2 mps 728 mmHg 87%
    22:00 +9°C° 0.2 mm 2 mps 728 mmHg 86%
    23:00 +9°C° 0.2 mm 2 mps 728 mmHg 86%

    Mañana, 11 Diciembre, Miércoles

    Tiempo Temperatura Precipitaciones Viento Presión Humedad
    00:00 +9°C° 0.2 mm 2 mps 728 mmHg 86%
    01:00 +9°C° 0.2 mm 2 mps 728 mmHg 86%
    02:00 +8°C° 0.1 mm 2 mps 728 mmHg 86%
    03:00 +8°C° 0.1 mm 3 mps 728 mmHg 85%
    04:00 +8°C° 0.1 mm 3 mps 728 mmHg 85%
    05:00 +8°C° 0.1 mm 3 mps 728 mmHg 85%
    06:00 +8°C° 0.1 mm 3 mps 728 mmHg 85%
    07:00 +8°C° 0.1 mm 3 mps 728 mmHg 85%
    08:00 +9°C° 0 mm 3 mps 729 mmHg 82%
    09:00 +9°C° 0 mm 3 mps 729 mmHg 79%
    10:00 +10°C° 0 mm 3 mps 730 mmHg 76%
    11:00 +10°C° 0 mm 3 mps 729 mmHg 74%
    12:00 +11°C° 0 mm 3 mps 729 mmHg 71%
    13:00 +11°C° 0 mm 3 mps 729 mmHg 69%
    14:00 +10°C° 0 mm 2 mps 729 mmHg 71%
    15:00 +10°C° 0 mm 2 mps 729 mmHg 74%
    16:00 +9°C° 0 mm 2 mps 729 mmHg 77%
    17:00 +9°C° 0 mm 2 mps 729 mmHg 78%
    18:00 +8°C° 0 mm 2 mps 729 mmHg 80%
    19:00 +8°C° 0 mm 2 mps 729 mmHg 82%
    20:00 +7°C° 0 mm 2 mps 729 mmHg 82%
    21:00 +7°C° 0 mm 2 mps 729 mmHg 82%
    22:00 +7°C° 0 mm 2 mps 729 mmHg 82%
    23:00 +7°C° 0 mm 2 mps 729 mmHg 82%

    Pasado mañana, 12 Diciembre, Jueves

    Tiempo Temperatura Precipitaciones Viento Presión Humedad
    00:00 +6°C° 0 mm 2 mps 729 mmHg 83%
    01:00 +6°C° 0 mm 2 mps 728 mmHg 83%
    02:00 +6°C° 0 mm 2 mps 728 mmHg 83%
    03:00 +6°C° 0 mm 2 mps 728 mmHg 83%
    04:00 +6°C° 0 mm 2 mps 727 mmHg 83%
    05:00 +6°C° 0 mm 2 mps 727 mmHg 83%
    06:00 +7°C° 0 mm 1 mps 728 mmHg 83%
    07:00 +7°C° 0 mm 1 mps 728 mmHg 83%
    08:00 +8°C° 0 mm 1 mps 728 mmHg 78%
    09:00 +10°C° 0 mm 1 mps 728 mmHg 73%
    10:00 +11°C° 0 mm 1 mps 728 mmHg 68%
    11:00 +12°C° 0 mm 1 mps 728 mmHg 66%
    12:00 +12°C° 0 mm 1 mps 728 mmHg 65%
    13:00 +13°C° 0 mm 1 mps 727 mmHg 63%
    14:00 +12°C° 0 mm 1 mps 727 mmHg 68%
    15:00 +11°C° 0 mm 1 mps 727 mmHg 74%
    16:00 +10°C° 0 mm 1 mps 727 mmHg 79%
    17:00 +9°C° 0 mm 0 mps 727 mmHg 80%
    18:00 +9°C° 0 mm 0 mps 728 mmHg 81%
    19:00 +8°C° 0 mm 0 mps 728 mmHg 82%
    20:00 +8°C° 0 mm 0 mps 728 mmHg 82%
    21:00 +8°C° 0 mm 0 mps 728 mmHg 83%
    22:00 +9°C° 0 mm 1 mps 728 mmHg 83%
    23:00 +9°C° 0.1 mm 1 mps 728 mmHg 84%

    13 Diciembre, Viernes

    Tiempo Temperatura Precipitaciones Viento Presión Humedad
    00:00 +9°C° 0.1 mm 1 mps 727 mmHg 86%
    01:00 +8°C° 0.1 mm 1 mps 727 mmHg 87%
    02:00 +8°C° 0 mm 1 mps 727 mmHg 86%
    03:00 +8°C° 0 mm 1 mps 727 mmHg 86%
    04:00 +8°C° 0 mm 1 mps 727 mmHg 85%
    05:00 +8°C° 0.4 mm 1 mps 727 mmHg 86%
    06:00 +8°C° 0.4 mm 1 mps 726 mmHg 87%
    07:00 +8°C° 0.4 mm 1 mps 726 mmHg 88%
    08:00 +9°C° 0.4 mm 1 mps 726 mmHg 87%
    09:00 +9°C° 0.4 mm 1 mps 726 mmHg 86%
    10:00 +8°C° 0.4 mm 2 mps 726 mmHg 85%
    11:00 +9°C° 0.2 mm 2 mps 726 mmHg 80%
    12:00 +10°C° 0.2 mm 2 mps 726 mmHg 76%
    13:00 +11°C° 0.2 mm 3 mps 725 mmHg 71%
    14:00 +10°C° 0.3 mm 2 mps 725 mmHg 75%
    15:00 +10°C° 0.3 mm 2 mps 724 mmHg 79%
    16:00 +10°C° 0.3 mm 1 mps 724 mmHg 84%
    17:00 +8°C° 0.1 mm 2 mps 724 mmHg 84%
    18:00 +8°C° 0.1 mm 2 mps 723 mmHg 84%
    19:00 +8°C° 0.1 mm 2 mps 723 mmHg 84%
    20:00 +8°C° 0 mm 2 mps 723 mmHg 83%
    21:00 +8°C° 0 mm 3 mps 722 mmHg 83%
    22:00 +8°C° 0 mm 3 mps 721 mmHg 82%
    23:00 +8°C° 0 mm 3 mps 721 mmHg 81%

    14 Diciembre, Sábado

    Tiempo Temperatura Precipitaciones Viento Presión Humedad
    00:00 +8°C° 0 mm 3 mps 720 mmHg 81%
    01:00 +8°C° 0 mm 3 mps 719 mmHg 81%
    02:00 +7°C° 1.9 mm 4 mps 719 mmHg 84%
    03:00 +7°C° 1.9 mm 4 mps 718 mmHg 87%
    04:00 +7°C° 1.9 mm 4 mps 717 mmHg 90%
    05:00 +8°C° 5.1 mm 3 mps 717 mmHg 92%
    06:00 +7°C° 5.1 mm 3 mps 718 mmHg 93%
    07:00 +7°C° 5.1 mm 2 mps 718 mmHg 95%
    08:00 +8°C° 1.1 mm 2 mps 719 mmHg 93%
    09:00 +8°C° 1.1 mm 2 mps 720 mmHg 92%
    10:00 +9°C° 1.1 mm 1 mps 721 mmHg 90%
    11:00 +10°C° 0.2 mm 1 mps 721 mmHg 90%
    12:00 +10°C° 0.2 mm 1 mps 722 mmHg 91%
    13:00 +10°C° 0.2 mm 1 mps 722 mmHg 91%
    14:00 +10°C° 0.2 mm 1 mps 723 mmHg 91%
    15:00 +10°C° 0.2 mm 1 mps 724 mmHg 91%
    16:00 +10°C° 0.2 mm 1 mps 725 mmHg 91%
    17:00 +10°C° 0 mm 1 mps 726 mmHg 90%
    18:00 +9°C° 0 mm 1 mps 727 mmHg 90%
    19:00 +9°C° 0 mm 1 mps 728 mmHg 89%
    20:00 +9°C° 0 mm 1 mps 729 mmHg 89%
    21:00 +8°C° 0 mm 1 mps 730 mmHg 88%
    22:00 +8°C° 0 mm 1 mps 731 mmHg 88%
    23:00 +8°C° 0 mm 1 mps 731 mmHg 86%

    15 Diciembre, Domingo

    Tiempo Temperatura Precipitaciones Viento Presión Humedad
    00:00 +8°C° 0 mm 1 mps 732 mmHg 85%
    01:00 +8°C° 0 mm 1 mps 732 mmHg 84%
    02:00 +8°C° 0 mm 1 mps 733 mmHg 83%
    03:00 +8°C° 0 mm 2 mps 733 mmHg 82%
    04:00 +8°C° 0 mm 2 mps 734 mmHg 82%
    05:00 +8°C° 0 mm 2 mps 734 mmHg 81%
    06:00 +8°C° 0 mm 2 mps 735 mmHg 81%
    07:00 +8°C° 0 mm 2 mps 735 mmHg 81%
    08:00 +9°C° 0 mm 2 mps 736 mmHg 78%
    09:00 +12°C° 0 mm 1 mps 736 mmHg 76%
    10:00 +14°C° 0 mm 1 mps 737 mmHg 74%
    11:00 +14°C° 0 mm 1 mps 737 mmHg 72%
    12:00 +15°C° 0 mm 1 mps 737 mmHg 70%
    13:00 +16°C° 0 mm 1 mps 737 mmHg 67%
    14:00 +15°C° 0 mm 1 mps 737 mmHg 72%
    15:00 +13°C° 0 mm 0 mps 737 mmHg 77%
    16:00 +12°C° 0 mm 0 mps 737 mmHg 82%
    17:00 +12°C° 0 mm 1 mps 738 mmHg 82%
    18:00 +12°C° 0 mm 1 mps 738 mmHg 81%
    19:00 +12°C° 0 mm 1 mps 739 mmHg 80%
    20:00 +12°C° 0 mm 1 mps 739 mmHg 79%
    21:00 +12°C° 0 mm 1 mps 739 mmHg 78%
    22:00 +11°C° 0 mm 1 mps 740 mmHg 76%
    23:00 +11°C° 0 mm 1 mps 740 mmHg 77%
    Mostrar más